Weather in Svoboda nad Úpou

Czech Republic     50°37′33″N   15°48′54″E
temp.,
°C
wind,
m/s
gust,
m/s
humid.,
%
clouds,
%
prec.,
mm/h
press.,
hPa
HPBL,
m
14 april, wed
wed1423:00−1nnw31087100 0.2 1027563
02:00−1nnw31088100 0.3 1026667
05:00−2nnw3996100 0.2 1027530
08:00−2nnw3993100 0.4 1027693
11:000nnw5877100 0.1 10271164
14:00+1nnw5872100 0.4 10251569
17:00+2nnw487598 0.3 10251299
20:00−1nnw2688100 0.6 1026351
15 april, thu
thu1523:00−2nw3886100 0.1 1026303
02:00−3nw2492100 0.1 1026109
05:00−3nnw2696100 0.2 1025312
08:00−2nnw3895100 1.4 1025692
11:00−1nnw4890100 1.3 1025782
14:00−1nnw4992100 3.3 1024777
17:00−1nw3994100 2.2 1024746
20:00−1nw3998100 4.7 1023755
16 april, fri
fri1623:00−2nnw2799100 2.5 1022630
02:00−2nnw2499100 3.4 1022481
05:00−2nnw1399100 0.6 1023306
08:00−1nnw2399100 1.4 1023147
11:000nnw23100100 0.6 1024159
14:00+1nnw13100100 0.9 1024216
17:00+1nnw13100100 0.1 1024147
20:00+1nnw13100100 0.1 102596
17 april, sat
sat1723:00+1nw1310098 0.1 1024117
02:000nw239995 0.1 1024112
05:00−1nnw239982 0.0 102490
08:00+1n239998 0.0 1024207
11:00+1nnw13100100 0.1 1024243
14:00+1nnw23100100 0.4 1024112
17:00+1nnw23100100 0.1 1023193
20:00+1n23100100 0.2 1023168
18 april, sun
sun1823:00+1nnw12100100 0.0 102380
02:00+1nnw12100100 0.1 102250
05:00+2n1196100 0.4 102133
08:00+1nnw1199100 0.9 102240
11:00+3n1298100 0.1 1022180
14:00+5n119487 0.2 1021357
17:00+5nnw1295100 0.1 1020251
20:00+3nw2299100 0.1 102144